Tracking 23758 objects as of 28-Oct-2021
HD Live streaming from Space Station
objects crossing your sky now

COSMOS 2340

Track COSMOS 2340 now!
COSMOS 2340 is classified as:


NORAD ID: 24761
Int'l Code: 1997-015A
Perigee: 2,858.7 km
Apogee: 37,497.8 km
Inclination: 66.1 °
Period: 717.5 minutes
Semi major axis: 26549 km
RCS: 6.3095 m2 (large)
Launch date: April 9, 1997
Source: Commonwealth of Independent States (former USSR) (CIS)
Launch site: PLESETSK MISSILE AND SPACE COMPLEX (PKMTR)
aabbcc
Your satellite tracking list
Your tracking list is empty




NASA's NSSDC Master Catalog

Two Line Element Set (TLE):
1 24761U 97015A   21300.14884453 -.00000593  00000-0  00000-0 0  9993
2 24761  66.0739 300.9226 6523551 170.5448 213.5967  2.00689263179861
Source of the keplerian elements: AFSPC